H1 CPF 2 NER 2024 5 18 9 139 01 glonass127 H2 1106403 9127 37869 2024 5 18 0 0 0 2024 5 21 23 45 0 900 1 1 0 0 0 1 H9 10 0 60448 0.00000 0 -18095957.687 -5800302.130 -16967918.608 10 0 60448 900.00000 0 -19660449.798 -6988676.034 -14629448.628 10 0 60448 1800.00000 0 -21062435.291 -7875831.326 -12005974.186 10 0 60448 2700.00000 0 -22242146.014 -8473702.617 -9148806.069 10 0 60448 3600.00000 0 -23145603.212 -8806126.119 -6113718.630 10 0 60448 4500.00000 0 -23726899.078 -8907550.923 -2959844.621 10 0 60448 5400.00000 0 -23950151.431 -8821311.358 251488.178 10 0 60448 6300.00000 0 -23791050.845 -8597536.717 3457954.718 10 0 60448 7200.00000 0 -23237937.305 -8290789.199 6597440.836 10 0 60448 8100.00000 0 -22292363.663 -7957531.398 9609238.349 10 0 60448 9000.00000 0 -20969124.779 -7653530.851 12435204.544 10 0 60448 9900.00000 0 -19295753.450 -7431310.675 15020864.880 10 0 60448 10800.00000 0 -17311505.985 -7337752.468 17316439.424 10 0 60448 11700.00000 0 -15065880.764 -7411950.478 19277775.517 10 0 60448 12600.00000 0 -12616731.650 -7683405.052 20867171.225 10 0 60448 13500.00000 0 -10028053.869 -8170629.029 22054076.336 10 0 60448 14400.00000 0 -7367532.480 -8880223.766 22815659.901 10 0 60448 15300.00000 0 -4703952.627 -9806462.356 23137235.453 10 0 60448 16200.00000 0 -2104575.755 -10931397.272 23012537.257 10 0 60448 17100.00000 0 367412.833 -12225488.745 22443843.071 10 0 60448 18000.00000 0 2655282.623 -13648729.334 21441941.015 10 0 60448 18900.00000 0 4710866.953 -15152220.321 20025940.364 10 0 60448 19800.00000 0 6496317.258 -16680137.221 18222928.270 10 0 60448 20700.00000 0 7985430.886 -18172005.614 16067476.808 10 0 60448 21600.00000 0 9164497.655 -19565195.372 13601007.169 10 0 60448 22500.00000 0 10032629.384 -20797531.607 10871020.376 10 0 60448 23400.00000 0 10601557.327 -21809914.779 7930206.580 10 0 60448 24300.00000 0 10894904.293 -22548840.929 4835447.650 10 0 60448 25200.00000 0 10946960.029 -22968715.825 1646730.314 10 0 60448 26100.00000 0 10801009.525 -23033864.258 -1574010.348 10 0 60448 27000.00000 0 10507283.311 -22720147.462 -4764095.168 10 0 60448 27900.00000 0 10120615.528 -22016117.325 -7861329.265 10 0 60448 28800.00000 0 9697908.890 -20923655.161 -10805229.572 10 0 60448 29700.00000 0 9295514.809 -19458064.478 -13538225.966 10 0 60448 30600.00000 0 8966641.448 -17647610.492 -16006810.451 10 0 60448 31500.00000 0 8758902.013 -15532523.084 -18162609.564 10 0 60448 32400.00000 0 8712110.038 -13163503.292 -19963356.580 10 0 60448 33300.00000 0 8856418.114 -10599795.146 -21373742.222 10 0 60448 34200.00000 0 9210881.757 -7906903.880 -22366125.166 10 0 60448 35100.00000 0 9782511.596 -5154056.989 -22921086.882 10 0 60448 36000.00000 0 10565855.782 -2411515.918 -23027818.844 10 0 60448 36900.00000 0 11543131.206 252147.405 -22684334.025 10 0 60448 37800.00000 0 12684898.132 2772693.581 -21897498.580 10 0 60448 38700.00000 0 13951249.046 5092666.549 -20682883.670 10 0 60448 39600.00000 0 15293460.155 7163548.973 -19064441.418 10 0 60448 40500.00000 0 16656033.995 8947532.306 -17074012.805 10 0 60448 41400.00000 0 17979044.840 10418828.603 -14750678.962 10 0 60448 42300.00000 0 19200685.897 11564471.251 -12139970.564 10 0 60448 43200.00000 0 20259909.054 12384574.061 -9292952.954 10 0 60448 44100.00000 0 21099044.577 12892041.529 -6265206.920 10 0 60448 45000.00000 0 21666289.728 13111746.464 -3115727.032 10 0 60448 45900.00000 0 21917961.595 13079213.715 94239.377 10 0 60448 46800.00000 0 21820420.205 12838869.178 3302388.755 10 0 60448 47700.00000 0 21351582.595 12441931.066 6446569.454 10 0 60448 48600.00000 0 20501966.264 11944034.590 9465977.911 10 0 60448 49500.00000 0 19275220.500 11402691.433 12302320.330 10 0 60448 50400.00000 0 17688125.536 10874691.252 14900918.586 10 0 60448 51300.00000 0 15770061.412 10413553.788 17211740.807 10 0 60448 52200.00000 0 13561969.926 10067137.118 19190339.017 10 0 60448 53100.00000 0 11114853.378 9875500.405 20798678.281 10 0 60448 54000.00000 0 8487871.978 9869108.439 22005844.016 10 0 60448 54900.00000 0 5746117.464 10067451.019 22788616.341 10 0 60448 55800.00000 0 2958152.953 10478133.235 23131902.481 10 0 60448 56700.00000 0 193417.974 11096473.705 23029020.490 10 0 60448 57600.00000 0 -2480397.261 11905627.495 22481829.638 10 0 60448 58500.00000 0 -4999902.996 12877229.502 21500704.982 10 0 60448 59400.00000 0 -7308384.028 13972533.265 20104355.797 10 0 60448 60300.00000 0 -9357900.935 15144000.167 18319489.776 10 0 60448 61200.00000 0 -11111033.016 16337275.599 16180327.280 10 0 60448 62100.00000 0 -12542191.381 17493472.516 13727972.314 10 0 60448 63000.00000 0 -13638447.425 18551669.546 11009649.488 10 0 60448 63900.00000 0 -14399841.167 19451521.111 8077818.895 10 0 60448 64800.00000 0 -14839154.949 20135871.232 4989183.451 10 0 60448 65700.00000 0 -14981160.034 20553261.360 1803605.884 10 0 60448 66600.00000 0 -14861365.682 20660225.687 -1417044.962 10 0 60448 67500.00000 0 -14524321.609 20423275.232 -4610096.701 10 0 60448 68400.00000 0 -14021544.186 19820484.101 -7713301.270 10 0 60448 69300.00000 0 -13409153.465 18842607.483 -10666063.144 10 0 60448 70200.00000 0 -12745321.338 17493680.448 -13410642.397 10 0 60448 71100.00000 0 -12087640.046 15791068.572 -15893307.011 10 0 60448 72000.00000 0 -11490524.395 13764965.018 -18065409.574 10 0 60448 72900.00000 0 -11002760.210 11457352.698 -19884364.854 10 0 60448 73800.00000 0 -10665305.564 8920473.469 -21314506.855 10 0 60448 74700.00000 0 -10509440.623 6214867.999 -22327806.500 10 0 60448 75600.00000 0 -10555346.788 3407068.717 -22904434.309 10 0 60448 76500.00000 0 -10811177.084 567043.429 -23033155.949 10 0 60448 77400.00000 0 -11272658.187 -2234501.901 -22711552.368 10 0 60448 78300.00000 0 -11923241.157 -4928846.785 -21946060.220 10 0 60448 79200.00000 0 -12734793.897 -7451890.932 -20751832.361 10 0 60448 80100.00000 0 -13668804.728 -9746588.814 -19152422.200 10 0 60448 81000.00000 0 -14678044.307 -11765081.993 -17179299.546 10 0 60448 81900.00000 0 -15708613.359 -13470440.570 -14871209.236 10 0 60448 82800.00000 0 -16702287.366 -14837942.314 -12273387.101 10 0 60448 83700.00000 0 -17599056.907 -15855838.359 -9436650.742 10 0 60448 84600.00000 0 -18339754.612 -16525576.556 -6416384.960 10 0 60448 85500.00000 0 -18868656.578 -16861476.875 -3271443.638 10 0 60449 0.00000 0 -19135948.025 -16889876.559 -62991.404 10 0 60449 900.00000 0 -19099949.629 -16647784.888 3146692.854 10 0 60449 1800.00000 0 -18729011.470 -16181107.721 6295422.317 10 0 60449 2700.00000 0 -18002997.039 -15542519.404 9322300.649 10 0 60449 3600.00000 0 -16914296.489 -14789073.378 12168885.545 10 0 60449 4500.00000 0 -15468328.919 -13979652.901 14780297.795 10 0 60449 5400.00000 0 -13683514.493 -13172368.780 17106255.934 10 0 60449 6300.00000 0 -11590718.937 -12422012.216 19102018.798 10 0 60449 7200.00000 0 -9232194.265 -11777667.700 20729220.295 10 0 60449 8100.00000 0 -6660059.582 -11280583.612 21956582.975 10 0 60449 9000.00000 0 -3934383.923 -10962387.195 22760499.149 10 0 60449 9900.00000 0 -1120948.634 -10843716.302 23125470.479 10 0 60449 10800.00000 0 1711220.788 -10933323.441 23044399.169 10 0 60449 11700.00000 0 4492454.534 -11227688.647 22518726.016 10 0 60449 12600.00000 0 7155065.832 -11711157.404 21558412.695 10 0 60449 13500.00000 0 9635900.421 -12356598.873 20181767.862 10 0 60449 14400.00000 0 11878705.484 -13126558.794 18415118.855 10 0 60449 15300.00000 0 13836221.943 -13974861.348 16292333.133 10 0 60449 16200.00000 0 15471914.552 -14848595.737 13854196.041 10 0 60449 17100.00000 0 16761268.112 -15690407.051 11147654.002 10 0 60449 18000.00000 0 17692595.147 -16440997.659 8224934.953 10 0 60449 18900.00000 0 18267319.864 -17041735.705 5142560.487 10 0 60449 19800.00000 0 18499724.591 -17437261.658 1960266.705 10 0 60449 20700.00000 0 18416167.104 -17577982.708 -1260146.592 10 0 60449 21600.00000 0 18053799.664 -17422348.319 -4456016.704 10 0 60449 22500.00000 0 17458842.019 -16938808.372 -7565045.293 10 0 60449 23400.00000 0 16684480.148 -16107367.952 -10526527.222 10 0 60449 24300.00000 0 15788479.271 -14920669.339 -13282555.478 10 0 60449 25200.00000 0 14830612.604 -13384551.666 -15779176.573 10 0 60449 26100.00000 0 13870016.043 -11518060.966 -17967471.486 10 0 60449 27000.00000 0 12962582.737 -9352907.066 -19804538.582 10 0 60449 27900.00000 0 12158510.194 -6932387.875 -21254356.967 10 0 60449 28800.00000 0 11500106.254 -4309824.872 -22288511.308 10 0 60449 29700.00000 0 11019949.050 -1546575.034 -22886762.317 10 0 60449 30600.00000 0 10739480.611 1290297.069 -23037450.622 10 0 60449 31500.00000 0 10668094.779 4130588.411 -22737725.518 10 0 60449 32400.00000 0 10802758.322 6903658.923 -21993594.160 10 0 60449 33300.00000 0 11128180.743 9541150.675 -20819790.729 10 0 60449 34200.00000 0 11617524.314 11979609.771 -19239469.196 10 0 60449 35100.00000 0 12233622.300 14162900.536 -17283727.136 10 0 60449 36000.00000 0 12930651.432 16044310.989 -14990971.687 10 0 60449 36900.00000 0 13656185.197 17588262.272 -12406142.088 10 0 60449 37800.00000 0 14353538.543 18771552.235 -9579806.120 10 0 60449 38700.00000 0 14964302.505 19584083.679 -6567150.195 10 0 60449 39600.00000 0 15430959.849 20029050.051 -3426884.829 10 0 60449 40500.00000 0 15699470.144 20122574.563 -220088.479 10 0 60449 41400.00000 0 15721714.815 19892821.814 2990986.498 10 0 60449 42300.00000 0 15457699.521 19378622.977 6144121.751 10 0 60449 43200.00000 0 14877422.244 18627675.492 9178331.194 10 0 60449 44100.00000 0 13962330.149 17694395.321 12035026.915 10 0 60449 45000.00000 0 12706305.946 16637513.362 14659131.347 10 0 60449 45900.00000 0 11116144.254 15517517.241 17000115.954 10 0 60449 46800.00000 0 9211499.554 14394045.047 19012948.665 10 0 60449 47700.00000 0 7024308.835 13323338.597 20658934.253 10 0 60449 48600.00000 0 4597713.090 12355860.561 21906434.136 10 0 60449 49500.00000 0 1984521.699 11534172.450 22731454.225 10 0 60449 50400.00000 0 -754718.236 10891159.554 23118091.656 10 0 60449 51300.00000 0 -3553970.123 10448674.643 23058833.398 10 0 60449 52200.00000 0 -6344183.691 10216655.437 22554701.911 10 0 60449 53100.00000 0 -9055899.361 10192751.889 21615245.109 10 0 60449 54000.00000 0 -11621876.865 10362479.000 20258370.114 10 0 60449 54900.00000 0 -13979642.403 10699889.875 18510022.461 10 0 60449 55800.00000 0 -16073851.304 11168742.756 16403714.775 10 0 60449 56700.00000 0 -17858369.796 11724115.571 13979911.381 10 0 60449 57600.00000 0 -19297990.078 12314402.942 11285277.834 10 0 60449 58500.00000 0 -20369706.911 12883614.289 8371807.029 10 0 60449 59400.00000 0 -21063501.266 13373878.349 5295836.216 10 0 60449 60300.00000 0 -21382596.356 13728049.847 2116971.837 10 0 60449 61200.00000 0 -21343172.988 13892308.570 -1103058.362 10 0 60449 62100.00000 0 -20973553.795 13818640.198 -4301604.308 10 0 60449 63000.00000 0 -20312888.543 13467092.119 -7416320.226 10 0 60449 63900.00000 0 -19409394.238 12807705.965 -10386394.086 10 0 60449 64800.00000 0 -18318223.446 11822041.655 -13153754.329 10 0 60449 65700.00000 0 -17099050.752 10504224.636 -15664228.319 10 0 60449 66600.00000 0 -15813480.174 8861468.250 -17868627.474 10 0 60449 67500.00000 0 -14522384.607 6914045.673 -19723735.471 10 0 60449 68400.00000 0 -13283291.783 4694709.735 -21193177.864 10 0 60449 69300.00000 0 -12147929.523 2247582.994 -22248154.009 10 0 60449 70200.00000 0 -11160036.234 -373436.346 -22868015.359 10 0 60449 71100.00000 0 -10353531.020 -3106686.009 -23040677.631 10 0 60449 72000.00000 0 -9751121.981 -5885083.696 -22762858.211 10 0 60449 72900.00000 0 -9363412.006 -8638704.273 -22040134.091 10 0 60449 73800.00000 0 -9188539.418 -11297480.737 -20886819.741 10 0 60449 74700.00000 0 -9212367.450 -13793914.426 -19325668.315 10 0 60449 75600.00000 0 -9409212.533 -16065679.952 -17387403.463 10 0 60449 76500.00000 0 -9743077.989 -18058015.260 -15110092.686 10 0 60449 77400.00000 0 -10169338.079 -19725796.913 -12538376.508 10 0 60449 78300.00000 0 -10636798.107 -21035214.779 -9722570.647 10 0 60449 79200.00000 0 -11090040.656 -21964977.907 -6717660.846 10 0 60449 80100.00000 0 -11471956.328 -22507003.725 -3582211.953 10 0 60449 81000.00000 0 -11726350.273 -22666565.038 -377214.250 10 0 60449 81900.00000 0 -11800513.398 -22461892.307 2835109.286 10 0 60449 82800.00000 0 -11647649.590 -21923251.605 5992510.754 10 0 60449 83700.00000 0 -11229057.227 -21091540.338 9033916.583 10 0 60449 84600.00000 0 -10515974.378 -20016462.386 11900595.510 10 0 60449 85500.00000 0 -9491011.795 -18754361.143 14537273.821 10 0 60450 0.00000 0 -8149115.521 -17365802.210 16893177.839 10 0 60450 900.00000 0 -6498019.620 -15913006.047 18922986.990 10 0 60450 1800.00000 0 -4558173.177 -14457238.625 20587678.456 10 0 60450 2700.00000 0 -2362142.690 -13056264.640 21855254.022 10 0 60450 3600.00000 0 46483.956 -11761968.865 22701334.398 10 0 60450 4500.00000 0 2614648.335 -10618241.343 23109613.050 10 0 60450 5400.00000 0 5281764.905 -9659212.035 23072162.235 10 0 60450 6300.00000 0 7981979.350 -8907906.256 22589586.257 10 0 60450 7200.00000 0 10646651.660 -8375375.436 21671019.131 10 0 60450 8100.00000 0 13206964.648 -8060338.775 20333965.995 10 0 60450 9000.00000 0 15596553.217 -7949351.066 18603989.830 10 0 60450 9900.00000 0 17754048.174 -8017490.817 16514247.370 10 0 60450 10800.00000 0 19625431.106 -8229541.753 14104880.558 10 0 60450 11700.00000 0 21166103.547 -8541620.475 11422272.385 10 0 60450 12600.00000 0 22342584.298 -8903184.310 8518178.672 10 0 60450 13500.00000 0 23133763.189 -9259337.071 5448749.972 10 0 60450 14400.00000 0 23531657.082 -9553337.108 2273460.402 10 0 60450 15300.00000 0 23541634.102 -9729202.543 -946037.230 10 0 60450 16200.00000 0 23182094.043 -9734303.321 -4147108.502 10 0 60450 17100.00000 0 22483615.862 -9521829.078 -7267363.266 10 0 60450 18000.00000 0 21487605.928 -9053026.073 -10245885.573 10 0 60450 18900.00000 0 20244502.515 -8299105.336 -13024442.149 10 0 60450 19800.00000 0 18811611.512 -7242737.627 -15548643.803 10 0 60450 20700.00000 0 17250664.845 -5879068.117 -17769034.729 10 0 60450 21600.00000 0 15625205.639 -4216204.189 -19642085.973 10 0 60450 22500.00000 0 13997912.045 -2275152.504 -21131071.298 10 0 60450 23400.00000 0 12427974.747 -89205.452 -22206806.211 10 0 60450 24300.00000 0 10968640.862 2297198.852 -22848234.028 10 0 60450 25200.00000 0 9665029.761 4830095.886 -23042846.351 10 0 60450 26100.00000 0 8552314.372 7448025.189 -22786929.071 10 0 60450 27000.00000 0 7654345.355 10084385.981 -22085629.076 10 0 60450 27900.00000 0 6982776.044 12670017.908 -20952840.808 10 0 60450 28800.00000 0 6536724.002 15135897.225 -19410915.912 10 0 60450 29700.00000 0 6302981.580 17415834.098 -17490203.059 10 0 60450 30600.00000 0 6256763.946 19449057.025 -15228428.698 10 0 60450 31500.00000 0 6362959.873 21182575.676 -12669932.867 10 0 60450 32400.00000 0 6577829.063 22573223.522 -9864777.119 10 0 60450 33300.00000 0 6851070.949 23589295.894 -6867744.084 10 0 60450 34200.00000 0 7128174.541 24211716.811 -3737250.243 10 0 60450 35100.00000 0 7352947.560 24434688.453 -534194.775 10 0 60450 36000.00000 0 7470116.349 24265799.303 2679231.784 10 0 60450 36900.00000 0 7427885.951 23725589.901 5840755.097 10 0 60450 37800.00000 0 7180352.399 22846597.807 8889217.180 10 0 60450 38700.00000 0 6689666.383 21671924.776 11765746.383 10 0 60450 39600.00000 0 5927858.614 20253388.391 14414875.642 10 0 60450 40500.00000 0 4878251.941 18649336.849 16785589.116 10 0 60450 41400.00000 0 3536402.699 16922218.557 18832279.222 10 0 60450 42300.00000 0 1910533.319 15136007.279 20515598.084 10 0 60450 43200.00000 0 21439.014 13353588.604 21803189.647 10 0 60450 44100.00000 0 -2098127.555 11634214.225 22670290.884 10 0 60450 45000.00000 0 -4404568.820 10031127.262 23100192.686 10 0 60450 45900.00000 0 -6845007.594 8589454.498 23084553.257 10 0 60450 46800.00000 0 -9359242.734 7344450.568 22623558.928 10 0 60450 47700.00000 0 -11882017.207 6320165.020 21725929.472 10 0 60450 48600.00000 0 -14345508.031 5528586.367 20408767.139 10 0 60450 49500.00000 0 -16681938.351 4969298.325 18697250.884 10 0 60450 50400.00000 0 -18826206.352 4629663.022 16624179.545 10 0 60450 51300.00000 0 -20718424.296 4485524.782 14229370.197 10 0 60450 52200.00000 0 -22306263.638 4502406.843 11558920.393 10 0 60450 53100.00000 0 -23547009.017 4637153.015 8664345.723 10 0 60450 54000.00000 0 -24409234.833 4839947.375 5601606.722 10 0 60450 54900.00000 0 -24874032.794 5056628.746 2430041.811 10 0 60450 55800.00000 0 -24935736.673 5231203.420 -788774.487 10 0 60450 56700.00000 0 -24602111.144 5308450.204 -3992226.652 10 0 60450 57600.00000 0 -23893993.826 5236506.788 -7117883.266 10 0 60450 58500.00000 0 -22844402.941 4969326.196 -10104727.401 10 0 60450 59400.00000 0 -21497145.999 4468896.580 -12894366.780 10 0 60450 60300.00000 0 -19904986.712 3707127.051 -15432198.111 10 0 60450 61200.00000 0 -18127446.905 2667315.975 -17668500.488 10 0 60450 62100.00000 0 -16228336.388 1345135.903 -19559434.043 10 0 60450 63000.00000 0 -14273116.017 -250910.000 -21067922.005 10 0 60450 63900.00000 0 -12326206.708 -2099582.133 -22164396.772 10 0 60450 64800.00000 0 -10448359.728 -4167547.461 -22827393.747 10 0 60450 65700.00000 0 -8694200.847 -6410545.469 -23043980.104 10 0 60450 66600.00000 0 -7110053.379 -8775028.361 -22810009.455 10 0 60450 67500.00000 0 -5732132.678 -11200206.149 -22130197.342 10 0 60450 68400.00000 0 -4585188.275 -13620409.650 -21018016.562 10 0 60450 69300.00000 0 -3681650.094 -15967670.771 -19495415.308 10 0 60450 70200.00000 0 -3021313.027 -18174410.280 -17592365.082 10 0 60450 71100.00000 0 -2591570.680 -20176118.965 -15346248.916 10 0 60450 72000.00000 0 -2368185.262 -21913918.822 -12801103.900 10 0 60450 72900.00000 0 -2316557.586 -23336896.539 -10006734.922 10 0 60450 73800.00000 0 -2393439.869 -24404111.996 -7017719.053 10 0 60450 74700.00000 0 -2549015.500 -25086198.794 -3892322.022 10 0 60450 75600.00000 0 -2729254.882 -25366491.856 -691349.635 10 0 60450 76500.00000 0 -2878445.498 -25241637.509 2523042.180 10 0 60450 77400.00000 0 -2941787.841 -24721663.591 5688554.715 10 0 60450 78300.00000 0 -2867947.142 -23829509.885 8743947.555 10 0 60450 79200.00000 0 -2611453.541 -22600041.504 11630210.568 10 0 60450 80100.00000 0 -2134850.733 -21078589.016 14291685.158 10 0 60450 81000.00000 0 -1410504.238 -19319078.017 16677114.829 10 0 60450 81900.00000 0 -421995.184 -17381826.965 18740606.970 10 0 60450 82800.00000 0 834957.174 -15331104.847 20442489.785 10 0 60450 83700.00000 0 2352081.491 -13232549.107 21750050.505 10 0 60450 84600.00000 0 4108665.699 -11150549.133 22638143.217 10 0 60450 85500.00000 0 6072189.274 -9145701.383 23089656.800 10 0 60451 0.00000 0 8199451.175 -7272438.982 23095835.692 10 0 60451 900.00000 0 10438149.787 -5576930.325 22656448.224 10 0 60451 1800.00000 0 12728849.256 -4095333.799 21779799.595 10 0 60451 2700.00000 0 15007257.647 -2852475.874 20482588.596 10 0 60451 3600.00000 0 17206723.073 -1861008.929 18789609.324 10 0 60451 4500.00000 0 19260848.469 -1121082.618 16733301.641 10 0 60451 5400.00000 0 21106118.934 -620543.322 14353156.410 10 0 60451 6300.00000 0 22684434.252 -335654.681 11694984.144 10 0 60451 7200.00000 0 23945441.940 -232310.916 8810058.314 10 0 60451 8100.00000 0 24848573.291 -267694.001 5754147.267 10 0 60451 9000.00000 0 25364696.033 -392306.902 2586451.299 10 0 60451 9900.00000 0 25477312.221 -552298.539 -631536.002 10 0 60451 10800.00000 0 25183248.344 -691983.025 -3837220.809 10 0 60451 11700.00000 0 24492805.517 -756446.400 -6968133.280 10 0 60451 12600.00000 0 23429360.349 -694129.329 -9963158.299 10 0 60451 13500.00000 0 22028430.566 -459274.227 -12763747.229 10 0 60451 14400.00000 0 20336242.617 -14130.269 -15315085.116 10 0 60451 15300.00000 0 18407860.342 669180.565 -17567188.128 10 0 60451 16200.00000 0 16304953.124 1607219.015 -19475907.403 10 0 60451 17100.00000 0 14093298.005 2804270.253 -21003817.288 10 0 60451 18000.00000 0 11840122.060 4251915.419 -22120968.476 10 0 60451 18900.00000 0 9611398.512 5929153.467 -22805489.596 10 0 60451 19800.00000 0 7469212.076 7803069.847 -23044024.268 10 0 60451 20700.00000 0 5469305.968 9830024.542 -22831994.381 10 0 60451 21600.00000 0 3658914.887 11957309.343 -22173684.366 10 0 60451 22500.00000 0 2074975.517 14125203.803 -21082145.232 10 0 60451 23400.00000 0 742789.460 16269342.079 -19578921.206 10 0 60451 24300.00000 0 -324806.497 18323289.531 -17693605.704 10 0 60451 25200.00000 0 -1127730.089 20221219.278 -15463237.042 10 0 60451 26100.00000 0 -1678394.022 21900574.858 -12931547.688 10 0 60451 27000.00000 0 -2000911.703 23304606.400 -10148083.845 10 0 60451 27900.00000 0 -2129805.580 24384673.634 -7167214.688 10 0 60451 28800.00000 0 -2108276.452 25102219.674 -4047052.591 10 0 60451 29700.00000 0 -1986110.362 25430334.167 -848307.176 10 0 60451 30600.00000 0 -1817314.353 25354842.343 2366903.192 10 0 60451 31500.00000 0 -1657583.075 24874876.921 5536258.456 10 0 60451 32400.00000 0 -1561704.356 24002911.835 8598438.795 10 0 60451 33300.00000 0 -1581013.379 22764259.226 11494298.534 10 0 60451 34200.00000 0 -1761002.135 21196053.301 14167990.371 10 0 60451 35100.00000 0 -2139183.401 19345765.401 16568019.807 10 0 60451 36000.00000 0 -2743297.279 17269313.320 18648211.667 10 0 60451 36900.00000 0 -3589933.661 15028843.715 20368572.462 10 0 60451 37800.00000 0 -4683626.704 12690279.018 21696034.681 10 0 60451 38700.00000 0 -6016458.054 10320728.889 22605071.197 10 0 60451 39600.00000 0 -7568185.062 7985871.218 23078170.198 10 0 60451 40500.00000 0 -9306889.181 5747408.256 23106163.230 10 0 60451 41400.00000 0 -11190119.106 3660700.233 22688401.066 10 0 60451 42300.00000 0 -13166483.398 1772671.674 21832774.285 10 0 60451 43200.00000 0 -15177629.402 120074.807 20555577.559 10 0 60451 44100.00000 0 -17160529.523 -1271819.571 18881218.889 10 0 60451 45000.00000 0 -19049983.116 -2390050.143 16841777.328 10 0 60451 45900.00000 0 -20781232.872 -3234277.533 14476415.169 10 0 60451 46800.00000 0 -22292589.050 -3816567.244 11830653.043 10 0 60451 47700.00000 0 -23527953.432 -4160650.635 8955519.102 10 0 60451 48600.00000 0 -24439137.889 -4300693.040 5906586.045 10 0 60451 49500.00000 0 -24987879.716 -4279618.855 2742912.431 10 0 60451 50400.00000 0 -25147467.422 -4147062.453 -474092.738 10 0 60451 51300.00000 0 -24903906.056 -3957030.293 -3681860.936 10 0 60451 52200.00000 0 -24256569.915 -3765372.699 -6817887.403 10 0 60451 53100.00000 0 -23218311.758 -3627172.917 -9820962.162 10 0 60451 54000.00000 0 -21815020.724 -3594165.560 -12632383.340 10 0 60451 54900.00000 0 -20084644.814 -3712296.179 -15197127.138 10 0 60451 55800.00000 0 -18075717.115 -4019528.391 -17464949.271 10 0 60451 56700.00000 0 -15845446.691 -4543994.803 -19391393.890 10 0 60451 57600.00000 0 -13457454.252 -5302573.434 -20938687.937 10 0 60451 58500.00000 0 -10979248.467 -6299952.995 -22076501.265 10 0 60451 59400.00000 0 -8479550.219 -7528229.181 -22782555.954 10 0 60451 60300.00000 0 -6025578.778 -8967050.873 -23043071.640 10 0 60451 61200.00000 0 -3680415.530 -10584311.135 -22853037.469 10 0 60451 62100.00000 0 -1500557.256 -12337354.020 -22216305.193 10 0 60451 63000.00000 0 466237.487 -14174645.717 -21145502.021 10 0 60451 63900.00000 0 2182718.425 -16037838.393 -19661765.836 10 0 60451 64800.00000 0 3623456.561 -17864138.179 -17794309.333 10 0 60451 65700.00000 0 4775646.746 -19588875.838 -15579823.287 10 0 60451 66600.00000 0 5639368.714 -21148170.246 -13061732.616 10 0 60451 67500.00000 0 6227298.980 -22481571.320 -10289321.882 10 0 60451 68400.00000 0 6563889.616 -23534570.507 -7316749.428 10 0 60451 69300.00000 0 6684052.486 -24260873.243 -4201971.432 10 0 60451 70200.00000 0 6631408.379 -24624338.635 -1005598.617 10 0 60451 71100.00000 0 6456178.327 -24600506.385 2210290.761 10 0 60451 72000.00000 0 6212808.803 -24177648.974 5383357.656 10 0 60451 72900.00000 0 5957432.863 -23357307.484 8452204.978 10 0 60451 73800.00000 0 5745275.089 -22154291.274 11357553.446 10 0 60451 74700.00000 0 5628109.589 -20596144.008 14043368.735 10 0 60451 75600.00000 0 5651877.032 -18722100.354 16457919.788 10 0 60451 76500.00000 0 5854559.302 -16581578.198 18554750.028 10 0 60451 77400.00000 0 6264399.044 -14232269.578 20293545.158 10 0 60451 78300.00000 0 6898536.778 -11737909.179 21640883.496 10 0 60451 79200.00000 0 7762121.012 -9165811.518 22570856.969 10 0 60451 80100.00000 0 8847927.553 -6584276.665 23065553.027 10 0 60451 81000.00000 0 10136503.754 -4059969.101 23115389.999 10 0 60451 81900.00000 0 11596832.467 -1655375.022 22719300.496 10 0 60451 82800.00000 0 13187489.756 573559.719 21884759.603 10 0 60451 83700.00000 0 14858250.639 2579516.051 20627656.812 10 0 60451 84600.00000 0 16552079.083 4325528.185 18972012.772 10 0 60451 85500.00000 0 18207422.571 5786279.867 16949544.311 99